Location: Arbon
(43.0005°N, 0.7472°E)
Time: 10:28:03
(UTC+00:00)

Vanguard 2 Rocket - Pass Details

Date: 26 November 2020
Orbit: 554 x 3325 km, 32.9° (Epoch: 21 January)

Event Time Altitude Azimuth Distance (km) Brightness Sun altitude
Rises 04:51:40 0° 181° (S) 6,869 11.5 -23.6°
Reaches altitude 10° 04:59:39 10° 161° (SSE) 6,167 11.4 -22.2°
Maximum altitude 05:08:41 15° 134° (SE) 5,845 11.7 -20.5°
Drops below altitude 10° 05:17:34 10° 107° (ESE) 6,124 12.3 -18.9°
Sets 05:25:12 0° 88° (E) 6,806 12.8 -17.6°
